[[{"header":{"parameterUnit":"m.s-1","parameterCategory":1,"la1":30.2991,"la2":30.254,"lo1":-89.0895,"lo2":-89.0444,"dy":0.0017,"dx":0.0017,"nx":28,"ny":28,"refTime":"2025-01-19T09:00:00:Z","depth":0,"parameterNumber":2,"parameterNumberName":"U-component_of_WINDS"},"data":[0,0,0,0,0,0,0,0,0,0,0,0,0,0,0,0,0,0,0,0,0,0,0,0,0,0,0,0,0,0,0,0,0,0,0,0,0,0,0,0,0,0,0,0,0,0,0,0,0,0,0,0,0,0,0,0,0,0,3.9307,3.9307,0,3.934,3.934,3.9341,3.929,3.9288,3.9286,3.9284,3.9317,3.9319,3.9322,0,0,0,0,0,0,0,0,0,0,0,0,0,3.9199,3.9202,3.9307,3.9307,3.9307,3.934,3.934,3.9341,3.929,3.9288,3.9286,3.9283,3.9316,3.9319,3.9322,0,0,0,0,0,0,0,0,0,0,0,0,0,3.9241,3.9202,3.9307,3.9286,3.9284,3.934,3.934,3.9341,3.929,3.9288,3.9285,3.9282,3.9315,3.9319,3.9323,3.9399,0,0,3.9334,3.9336,0,0,0,0,0,0,0,0,3.9238,3.9245,3.9289,3.9288,3.9286,3.9308,3.9314,3.936,3.9291,3.9288,3.9284,3.9281,3.9316,3.932,3.9332,3.9401,3.9402,3.9334,3.9337,3.9338,3.9339,0,0,0,0,0,0,0,3.9236,3.9243,3.932,3.9289,3.9288,3.9275,3.9278,3.9323,3.9316,3.9288,3.9284,3.9289,3.9315,3.9328,3.9332,3.9402,3.9334,3.9338,3.934,3.9342,3.9539,3.9542,0,0,0,0,0,0,3.9235,3.9241,3.9319,3.9321,3.9255,3.9279,3.9283,3.9303,3.9316,3.9315,3.9291,3.9287,3.9323,3.9328,3.9333,3.9425,3.9338,3.9342,3.9344,3.9536,3.9539,3.9543,0,0,0,0,0,0,3.9233,3.9243,3.9317,3.928,3.9288,3.9284,3.9308,3.9306,3.9319,3.9318,3.9317,3.9306,3.9321,3.9328,3.9384,3.9425,3.9344,3.9347,3.9532,3.9537,3.9541,3.9609,0,0,0,0,0,0,3.923,3.9242,3.9271,3.9281,3.9291,3.9368,3.931,3.9308,3.9326,3.932,3.9332,3.9331,3.9319,3.9378,3.9388,3.9429,3.935,3.9528,3.9534,3.954,3.9603,3.9615,3.9625,0,0,0,0,0,3.9227,3.9288,3.9273,3.9282,3.9326,3.937,3.9376,3.9361,3.9329,3.9358,3.9359,3.9331,3.9419,3.9385,3.9394,3.9438,3.9526,3.9533,3.9539,3.9598,3.9613,3.9625,0,0,0,0,0,0,3.9282,3.9289,3.9272,3.9338,3.9354,3.9361,3.9397,3.9377,3.9402,3.9395,3.9376,3.9379,3.944,3.9444,3.9405,3.9514,3.9467,3.9476,3.9509,3.9523,3.9534,3.9531,3.9353,0,0,0,0,0,3.9302,3.9337,3.9341,3.9399,3.9408,3.9402,3.942,3.9408,3.9423,3.9429,3.9433,3.9449,3.9481,3.9502,3.9531,3.9603,3.9606,3.9638,3.965,3.9659,3.9667,3.9708,3.9723,3.9565,3.9564,3.9564,0,0,3.9343,3.9351,3.9374,3.941,3.9421,3.9458,3.9407,3.9448,3.9476,3.9435,3.9489,3.9493,3.951,3.9575,3.9604,3.9581,3.9712,3.9668,3.9675,3.9678,3.9716,3.9731,3.9745,3.9569,3.9568,3.9568,0,0,3.9437,3.9446,3.9497,3.951,3.9527,3.9523,3.9536,3.9547,3.9548,3.9602,3.9574,3.9606,3.966,3.9674,3.9688,3.9791,3.9767,3.9801,3.986,3.99,3.9913,3.9924,3.9962,3.9976,3.9809,3.9809,3.9809,0,3.9486,3.9541,3.9525,3.9569,3.9586,3.9553,3.9605,3.9618,3.9644,3.9657,3.963,3.97,3.9708,3.9778,3.9803,3.9815,3.983,3.9799,3.9912,3.9923,3.9933,3.997,3.9984,3.9813,3.9813,3.9812,3.9812,0,3.9601,3.964,3.9678,3.9706,3.9728,3.9775,3.9767,3.9791,3.9778,3.9777,3.9834,3.9843,3.9875,3.989,3.9877,3.9959,3.9944,3.9916,3.9868,3.9953,3.9987,4.0,3.9819,3.9818,3.9816,3.9815,0,0,3.9729,3.975,3.9764,3.9777,3.9796,3.9825,3.9872,3.9904,3.9926,3.9945,3.9985,4.0033,4.0008,4.0024,4.0012,4.0047,4.0131,4.0015,4.0015,4.0037,4.0224,4.0245,4.0262,4.0115,4.0118,4.012,4.0223,0,3.9824,3.9905,3.9894,3.9972,4.0009,3.9979,4.002,4.0036,4.0037,4.0069,4.0069,4.0105,4.0068,4.0078,4.0111,4.0114,4.0168,4.0106,4.0152,4.0154,4.015,4.0279,4.0301,4.0398,4.0236,4.0238,4.0239,0,3.9945,3.9971,4.0054,4.0069,4.0084,4.0121,4.0151,4.0181,4.0199,4.0198,4.0218,4.02,4.0248,4.0201,4.0267,4.0225,4.0243,4.0248,4.0251,4.0255,4.0202,4.0287,4.0428,4.0443,4.026,4.0258,4.0257,0,4.0032,4.0088,4.0145,4.0157,4.0176,4.0203,4.0212,4.0228,4.0249,4.0275,4.0288,4.0319,4.0336,4.0361,4.0353,4.0319,4.0421,4.0373,4.0422,4.0423,4.0445,4.0444,4.0591,4.0456,4.0456,4.0456,4.0455,0,4.014,4.0192,4.0185,4.022,4.0278,4.0265,4.0322,4.0328,4.0343,4.0379,4.0355,4.039,4.0377,4.0411,4.0405,4.0462,4.0469,4.047,4.0468,4.0472,4.0472,4.0484,4.0478,4.0459,4.0459,4.0458,4.0457,0,4.0246,4.0243,4.0304,4.0318,4.0323,4.0365,4.0377,4.0411,4.0411,4.0457,4.0467,4.0467,4.0506,4.0501,4.0544,4.054,4.0612,4.0601,4.0606,4.0604,4.0654,4.065,4.0815,4.0836,4.0686,4.0688,4.0689,0,4.0315,4.0355,4.0374,4.0397,4.0409,4.0446,4.0467,4.0457,4.0481,4.0506,4.0537,4.0575,4.0604,4.0668,4.0672,4.0706,4.0696,4.0752,4.0701,4.0705,4.0698,4.0696,4.0701,4.0762,4.0763,4.0765,4.0766,0,4.0439,4.0436,4.0469,4.0502,4.0529,4.0554,4.0576,4.0597,4.0589,4.0617,4.0657,4.068,4.0725,4.0763,4.0795,4.0805,4.0785,4.0782,4.0796,4.0801,4.0803,4.0804,4.0634,4.0778,4.0777,4.0776,4.0775,4.0775,4.0529,4.0564,4.0584,4.0621,4.0638,4.066,4.0693,4.0699,4.0732,4.0769,4.0761,4.0807,4.0827,4.0868,4.0882,4.0918,4.0897,4.0916,4.0921,4.0927,4.0933,4.0797,4.0924,4.0923,4.0923,4.0923,4.0922,0,4.0653,4.0665,4.07,4.0733,4.0763,4.0743,4.0767,4.0794,4.0835,4.0856,4.0886,4.0934,4.0971,4.0979,4.1015,4.1043,4.1034,4.1052,4.105,4.1053,4.0949,4.0934,4.1059,4.1059,4.1059,4.1059,4.1058,4.1058,4.0721,4.0779,4.0779,4.0846,4.0857,4.0903,4.0919,4.0941,4.0957,4.1012,4.1043,4.1049,4.1065,4.1102,4.1136,4.1137,4.1152,4.1174,4.1172,4.1074,4.106,4.1047,4.1034,4.1177,4.1177,4.1274,4.1275,4.1275]},{"header":{"parameterUnit":"m.s-1","parameterCategory":1,"la1":30.2991,"la2":30.254,"lo1":-89.0895,"lo2":-89.0444,"dy":0.0017,"dx":0.0017,"nx":28,"ny":28,"refTime":"2025-01-19T09:00:00:Z","depth":0,"parameterNumber":3,"parameterNumberName":"V-component_of_WINDS"},"data":[0,0,0,0,0,0,0,0,0,0,0,0,0,0,0,0,0,0,0,0,0,0,0,0,0,0,0,0,0,0,0,0,0,0,0,0,0,0,0,0,0,0,0,0,0,0,0,0,0,0,0,0,0,0,0,0,0,0,-6.783,-6.7831,0,-6.7906,-6.7907,-6.7908,-6.7844,-6.7841,-6.7838,-6.7836,-6.791,-6.7914,-6.7918,0,0,0,0,0,0,0,0,0,0,0,0,0,-6.7628,-6.7632,-6.783,-6.7831,-6.7832,-6.7906,-6.7907,-6.7908,-6.7844,-6.7841,-6.7838,-6.7835,-6.7908,-6.7913,-6.7919,0,0,0,0,0,0,0,0,0,0,0,0,0,-6.7711,-6.7634,-6.783,-6.7809,-6.7808,-6.7906,-6.7907,-6.7908,-6.7845,-6.7841,-6.7837,-6.7833,-6.7906,-6.7913,-6.7919,-6.804,0,0,-6.794,-6.7943,0,0,0,0,0,0,0,0,-6.7707,-6.7719,-6.7811,-6.7811,-6.781,-6.7861,-6.7863,-6.7952,-6.7846,-6.7831,-6.7836,-6.7831,-6.7897,-6.7904,-6.7927,-6.8044,-6.8047,-6.794,-6.7944,-6.7947,-6.7949,0,0,0,0,0,0,0,-6.7701,-6.7715,-6.786,-6.7813,-6.7812,-6.7795,-6.7803,-6.7879,-6.7885,-6.7832,-6.7827,-6.7837,-6.7895,-6.792,-6.7928,-6.8048,-6.794,-6.7946,-6.795,-6.7953,-6.827,-6.8274,0,0,0,0,0,0,-6.7698,-6.7711,-6.7858,-6.7862,-6.7748,-6.7802,-6.7811,-6.7849,-6.7884,-6.7886,-6.7841,-6.7834,-6.7911,-6.792,-6.793,-6.8075,-6.7947,-6.7954,-6.7957,-6.8266,-6.8271,-6.8276,0,0,0,0,0,0,-6.7694,-6.7711,-6.7855,-6.7786,-6.7802,-6.781,-6.7853,-6.7852,-6.7877,-6.7891,-6.7891,-6.7865,-6.7908,-6.7921,-6.8014,-6.8077,-6.7957,-6.7963,-6.826,-6.8267,-6.8273,-6.8366,0,0,0,0,0,0,-6.7688,-6.771,-6.7757,-6.7787,-6.7806,-6.7938,-6.7857,-6.7857,-6.7889,-6.7882,-6.7914,-6.7916,-6.7906,-6.8005,-6.8021,-6.8084,-6.7968,-6.8255,-6.8263,-6.8271,-6.8357,-6.8375,-6.839,0,0,0,0,0,-6.7681,-6.7779,-6.776,-6.7778,-6.7865,-6.7942,-6.7953,-6.7941,-6.7895,-6.7941,-6.795,-6.7914,-6.8068,-6.8015,-6.8032,-6.8099,-6.8251,-6.8261,-6.8271,-6.835,-6.8372,-6.839,0,0,0,0,0,0,-6.7754,-6.7782,-6.7761,-6.7872,-6.7905,-6.7931,-6.7989,-6.7964,-6.801,-6.8001,-6.7983,-6.7991,-6.809,-6.8103,-6.8044,-6.8218,-6.8152,-6.8166,-6.8206,-6.8226,-6.8242,-6.8237,-6.7973,0,0,0,0,0,-6.7783,-6.7844,-6.7865,-6.7961,-6.7979,-6.7982,-6.8015,-6.8003,-6.8036,-6.805,-6.8065,-6.8098,-6.8154,-6.8191,-6.8242,-6.8359,-6.8366,-6.8413,-6.843,-6.8443,-6.8455,-6.852,-6.8541,-6.8308,-6.8308,-6.8308,0,0,-6.7843,-6.7866,-6.7906,-6.7976,-6.8,-6.8064,-6.7994,-6.8063,-6.811,-6.806,-6.815,-6.8163,-6.8198,-6.8304,-6.8351,-6.8318,-6.8521,-6.8456,-6.8466,-6.8471,-6.8532,-6.8554,-6.8574,-6.8315,-6.8314,-6.8313,0,0,-6.7986,-6.8009,-6.8092,-6.8119,-6.8158,-6.8159,-6.818,-6.821,-6.8217,-6.8307,-6.8271,-6.8326,-6.8422,-6.845,-6.8476,-6.8632,-6.8601,-6.8649,-6.8734,-6.8797,-6.8816,-6.8832,-6.8888,-6.8909,-6.8661,-6.8661,-6.8662,0,-6.8056,-6.8151,-6.8138,-6.8211,-6.8243,-6.8203,-6.8286,-6.8312,-6.8366,-6.8389,-6.8351,-6.8472,-6.8493,-6.8606,-6.8644,-6.8667,-6.8689,-6.8645,-6.8814,-6.883,-6.8845,-6.8899,-6.892,-6.8667,-6.8666,-6.8666,-6.8665,0,-6.8235,-6.8302,-6.8364,-6.8419,-6.8458,-6.8536,-6.8535,-6.8576,-6.8561,-6.8567,-6.866,-6.8684,-6.874,-6.8766,-6.8751,-6.8877,-6.8856,-6.8817,-6.8749,-6.8873,-6.8924,-6.8944,-6.8675,-6.8673,-6.8671,-6.867,0,0,-6.8425,-6.8473,-6.8496,-6.8522,-6.8562,-6.8613,-6.869,-6.8747,-6.8783,-6.8822,-6.8886,-6.8969,-6.8934,-6.8964,-6.8952,-6.9007,-6.913,-6.8961,-6.8962,-6.8993,-6.9272,-6.9302,-6.9326,-6.911,-6.9114,-6.9117,-6.927,0,-6.857,-6.8705,-6.8696,-6.8823,-6.8885,-6.8848,-6.8915,-6.8947,-6.8955,-6.9008,-6.9015,-6.9075,-6.9023,-6.9042,-6.9094,-6.9104,-6.9186,-6.9093,-6.917,-6.9173,-6.9163,-6.9352,-6.9384,-6.9526,-6.9289,-6.9292,-6.9295,0,-6.8757,-6.8805,-6.8939,-6.8972,-6.8998,-6.9058,-6.9111,-6.9162,-6.9198,-6.9199,-6.9235,-6.9214,-6.9291,-6.9223,-6.9329,-6.9266,-6.9297,-6.9306,-6.9312,-6.9319,-6.9242,-6.9365,-6.9571,-6.9593,-6.9325,-6.9323,-6.9321,0,-6.8884,-6.8981,-6.9074,-6.9096,-6.9137,-6.9181,-6.92,-6.9232,-6.9268,-6.9313,-6.9336,-6.939,-6.9419,-6.9461,-6.9455,-6.9405,-6.9564,-6.9494,-6.9568,-6.9568,-6.9603,-6.9601,-6.9818,-6.9622,-6.9622,-6.9621,-6.9621,0,-6.9048,-6.9131,-6.9132,-6.9189,-6.9282,-6.9271,-6.9362,-6.9376,-6.9405,-6.9464,-6.9435,-6.9491,-6.948,-6.9535,-6.9531,-6.9621,-6.9634,-6.9637,-6.9635,-6.9641,-6.9641,-6.9661,-6.9651,-6.9627,-6.9626,-6.9624,-6.9623,0,-6.9205,-6.9208,-6.9308,-6.9339,-6.9349,-6.9416,-6.9443,-6.9497,-6.9502,-6.9578,-6.9594,-6.9603,-6.9667,-6.9666,-6.9738,-6.9736,-6.9846,-6.9832,-6.9835,-6.9832,-6.9907,-6.99,-7.0145,-7.0177,-6.9959,-6.9961,-6.9963,0,-6.9309,-6.9373,-6.9412,-6.9451,-6.9473,-6.9535,-6.9571,-6.9563,-6.9603,-6.965,-6.9699,-6.976,-6.9809,-6.9914,-6.9926,-6.9982,-6.9969,-7.0051,-6.9977,-6.9981,-6.9972,-6.9969,-6.9976,-7.0066,-7.0068,-7.007,-7.0072,0,-6.9495,-6.9494,-6.9549,-6.9606,-6.9651,-6.9695,-6.9735,-6.9768,-6.9764,-6.981,-6.9877,-6.9915,-6.999,-7.0052,-7.0106,-7.0124,-7.0099,-7.0095,-7.0116,-7.0122,-7.0121,-7.0124,-6.9876,-7.009,-7.0088,-7.0087,-7.0086,-7.0085,-6.963,-6.9685,-6.9723,-6.9785,-6.9815,-6.9854,-6.9907,-6.992,-6.9976,-7.0038,-7.0029,-7.0104,-7.0139,-7.0209,-7.0233,-7.0291,-7.0262,-7.029,-7.0298,-7.0306,-7.0315,-7.0112,-7.03,-7.03,-7.0299,-7.0299,-7.0298,0,-6.9815,-6.9838,-6.9896,-6.9954,-7.0004,-6.9976,-7.0019,-7.0063,-7.0129,-7.0165,-7.0215,-7.0292,-7.0352,-7.037,-7.0429,-7.0472,-7.0461,-7.0487,-7.0484,-7.0489,-7.0336,-7.0314,-7.0495,-7.0495,-7.0495,-7.0495,-7.0495,-7.0495,-6.9917,-7.0011,-7.0015,-7.0123,-7.0144,-7.0219,-7.0246,-7.0282,-7.0311,-7.0399,-7.045,-7.0461,-7.049,-7.0551,-7.0605,-7.0609,-7.0632,-7.0664,-7.0663,-7.052,-7.05,-7.0481,-7.046,-7.0669,-7.0669,-7.0811,-7.0812,-7.0813]}]]